Location: Holcomb Observatory
(44.4922°N, 73.1654°W)
Time: 06:35:34
(UTC-05:00)

Cosmos 2360 Rocket - Visible Passes

Search period start: 31 January 2015 00:00
Search period end: 10 February 2015 00:00
Orbit: 836 x 844 km, 71.0° (Epoch: 30 January)

Date Brightness Start Highest point End Pass type
(mag) Time Alt. Az. Time Alt. Az. Time Alt. Az.
31 Jan 4.8 04:06:37 10° N 04:09:22 14° NE 04:12:20 10° ENE visible
31 Jan 2.5 05:48:59 10° NNW 05:54:36 68° ENE 06:00:13 10° SE visible
01 Feb 4.8 03:51:09 10° NNE 03:53:42 13° NE 03:56:26 10° ENE visible
01 Feb 2.6 05:33:23 10° NNW 05:38:59 64° ENE 05:44:34 10° SE visible
02 Feb 4.9 03:35:43 10° NNE 03:38:01 13° NE 03:40:31 10° ENE visible
02 Feb 2.7 05:17:47 10° NNW 05:23:22 60° ENE 05:28:56 10° SE visible
02 Feb 4.6 20:10:07 10° SSW 20:10:29 12° SSW 20:10:29 12° SSW visible
03 Feb 4.9 03:20:34 10° NNE 03:22:19 12° NE 03:24:35 10° ENE visible
03 Feb 2.8 05:02:22 11° NNW 05:07:45 57° ENE 05:13:17 10° SE visible
03 Feb 3.7 19:54:31 10° SSW 19:56:44 25° SSW 19:56:44 25° SSW visible
04 Feb 4.9 03:05:47 11° NNE 03:06:38 11° NE 03:08:35 10° ENE visible
04 Feb 2.8 04:47:36 15° NNW 04:52:07 53° ENE 04:57:38 10° SE visible
04 Feb 3.3 06:31:21 10° NW 06:35:48 24° WSW 06:40:08 10° SSW visible
04 Feb 4.0 18:00:14 10° ESE 18:01:08 11° E 18:01:08 11° E visible
04 Feb 2.6 19:38:55 10° SSW 19:43:01 50° S 19:43:01 50° S visible
05 Feb 5.0 02:51:08 11° NE 02:51:08 11° NE 02:52:32 10° NE visible
05 Feb 2.9 04:32:57 21° N 04:36:29 50° ENE 04:41:58 10° SE visible
05 Feb 3.2 06:15:39 10° NW 06:20:14 25° WSW 06:24:41 10° SSW visible
05 Feb 2.0 19:23:20 10° SSW 19:28:56 74° ESE 19:29:16 72° E visible
05 Feb 4.7 21:09:23 10° W 21:11:08 16° W 21:11:08 16° W visible
06 Feb 3.0 04:18:28 30° N 04:20:52 48° ENE 04:26:18 10° SE visible
06 Feb 3.1 06:00:18 11° NW 06:04:39 27° WSW 06:09:14 10° SSW visible
06 Feb 2.0 19:07:45 10° SSW 19:13:19 70° ESE 19:15:28 38° NE visible
06 Feb 4.3 20:53:37 10° W 20:57:20 21° WNW 20:57:20 21° WNW visible
07 Feb 3.1 04:04:09 40° NNE 04:05:14 45° ENE 04:10:38 10° SE visible
07 Feb 3.0 05:45:59 18° WNW 05:49:04 29° WSW 05:53:46 10° SSW visible
07 Feb 2.1 18:52:10 10° SSW 18:57:43 66° ESE 19:01:32 21° NE visible
07 Feb 4.2 20:37:51 10° W 20:42:17 23° NW 20:43:24 21° NNW visible
08 Feb 3.2 03:50:00 42° ENE 03:50:00 42° ENE 03:54:57 10° SE visible
08 Feb 2.9 05:31:51 26° WNW 05:33:29 31° WSW 05:38:17 10° SSW visible
08 Feb 2.2 18:36:36 10° S 18:42:07 62° ESE 18:47:28 11° NNE visible
08 Feb 4.2 20:22:05 10° WSW 20:26:38 24° NW 20:29:19 17° N visible
09 Feb 3.8 03:36:01 30° E 03:36:01 30° E 03:39:16 10° SE visible
09 Feb 2.8 05:17:52 32° WSW 05:17:54 32° WSW 05:22:48 10° SSW visible
09 Feb 2.2 18:21:03 10° S 18:26:31 58° ESE 18:32:03 10° NNE visible
09 Feb 4.1 20:06:20 10° WSW 20:10:58 25° NW 20:15:04 12° N visible
